This is the latest recevied weather packets stored in our database for station/object KG4YZY-1. If no packets are shown the sender has not sent any weather packets the latest 10 day(s).
| Time | Temp. | Humidity | Pressure | Rain* | Wind** | Luminosity | Snow |
|---|---|---|---|---|---|---|---|
| 1787511903 | 23.89° C | 95% | 1018.4 hPa | 1.78 mm | - | - | - |
| 1787511604 | 23.89° C | 95% | 1018.3 hPa | 1.78 mm | - | - | - |
| 1787511304 | 23.89° C | 95% | 1018.2 hPa | 1.52 mm | - | - | - |
| 1787511004 | 23.89° C | 95% | 1018.2 hPa | 1.52 mm | - | - | - |
| 1787510704 | 23.89° C | 95% | 1018.2 hPa | 1.27 mm | - | - | - |
| 1787510403 | 23.89° C | 95% | 1018.2 hPa | 1.02 mm | - | - | - |
| 1787510104 | 23.89° C | 95% | 1018.2 hPa | 1.02 mm | - | - | - |
| 1787509803 | 23.89° C | 95% | 1018.3 hPa | 1.02 mm | - | - | - |
| 1787509503 | 23.89° C | 95% | 1018.4 hPa | 1.02 mm | - | - | - |
| 1787509203 | 23.89° C | 95% | 1018.5 hPa | 1.02 mm | - | - | - |
| 1787508904 | 23.33° C | 95% | 1018.6 hPa | 1.02 mm | - | - | - |
| 1787508604 | 23.33° C | 95% | 1018.8 hPa | 0.76 mm | - | - | - |
| 1787508303 | 23.33° C | 95% | 1018.7 hPa | 0.76 mm | - | - | - |
| 1787508004 | 23.33° C | 95% | 1018.8 hPa | 0.76 mm | - | - | - |
| 1787507704 | 23.33° C | 95% | 1018.9 hPa | 0.76 mm | - | - | - |
| 1787507404 | 23.33° C | 95% | 1018.9 hPa | 0.51 mm | - | - | - |
| 1787507104 | 23.33° C | 95% | 1019.1 hPa | 0.76 mm | - | - | - |
| 1787506804 | 23.33° C | 94% | 1019.1 hPa | 0.76 mm | - | - | - |
| 1787506504 | 23.33° C | 94% | 1019.2 hPa | 0.76 mm | - | - | - |
| 1787506203 | 23.33° C | 94% | 1019.1 hPa | 0.51 mm | - | - | - |
| 1787505903 | 23.33° C | 94% | 1019 hPa | 1.02 mm | - | - | - |
| 1787505604 | 23.33° C | 94% | 1019.2 hPa | 1.27 mm | - | - | - |
| 1787505304 | 23.33° C | 94% | 1019.3 hPa | 2.03 mm | - | - | - |
| 1787505004 | 23.33° C | 94% | 1019.3 hPa | 3.3 mm | - | - | - |
| 1787504703 | 23.33° C | 94% | 1019.1 hPa | 6.6 mm | - | - | - |
* Rain latest hour (hover to see other rain measurements)
** Current wind speed in m/s (hover to see current wind gust speed)